Theta_e
316 315 316 316 316 316 316 316 316 315 315 315 315 315 315 315 315 316 316 316 316 316 316 316 318 321 308 295 298 307 337 331 310 306 300 297 298 298 295 292 292 291 295 296 299 298 297
315 315 315 315 315 315 315 315 315 315 314 314 314 314 314 314 315 316 315 315 315 316 315 316 318 322 304 292 302 314 316 313 311 303 302 299 297 297 294 292 295 295 295 297 297 297 297
315 314 314 315 315 315 315 315 315 314 314 314 315 314 314 315 315 315 315 315 314 315 316 317 319 317 303 299 308 311 311 308 315 309 304 304 302 300 297 294 295 295 294 296 296 297 297
316 315 314 314 314 314 314 314 314 314 314 314 314 314 314 314 315 315 315 315 314 317 318 318 321 312 297 305 310 315 309 308 310 311 309 308 304 299 295 296 296 292 291 289 296 298 299
317 316 315 314 314 313 314 314 313 313 313 313 314 313 313 314 314 315 314 313 315 320 321 321 310 307 302 317 311 311 308 306 304 305 306 311 302 296 297 291 287 289 287 288 294 296 298
318 317 316 315 314 313 313 313 313 313 313 313 313 313 313 313 314 313 312 313 314 317 319 318 315 300 307 309 314 311 305 305 304 303 303 302 297 294 291 289 283 286 289 290 290 296 297
318 317 316 315 315 313 312 312 313 313 313 313 313 313 312 313 313 312 308 300 298 297 301 297 299 304 308 314 312 306 305 304 303 300 294 298 294 290 291 293 293 292 290 290 294 297 295
318 318 316 315 314 313 312 312 312 312 313 313 312 312 313 312 312 312 302 299 299 299 294 301 301 305 309 310 303 307 306 299 297 292 295 294 291 297 298 298 295 294 292 292 295 297 295
318 317 316 315 315 314 312 312 311 312 312 313 312 312 312 311 311 303 299 302 302 298 293 298 301 300 300 305 302 304 305 300 295 292 291 291 296 301 299 297 296 292 291 291 292 296 294
318 317 317 315 314 313 312 311 311 311 311 312 312 312 312 310 303 298 299 302 300 298 292 300 301 302 302 301 300 307 306 302 296 293 293 292 297 298 296 296 296 290 296 296 295 292 288
318 317 316 315 314 313 312 311 311 311 312 312 312 312 311 309 297 296 300 300 301 303 285 303 300 305 301 299 302 303 306 303 294 294 295 293 295 296 296 296 297 295 299 296 295 290 287
317 317 316 315 314 313 312 311 311 311 312 311 312 312 310 302 295 298 300 299 302 292 286 300 301 298 297 300 301 301 302 304 302 296 295 296 299 298 298 300 299 299 297 293 290 288 285
316 316 315 314 313 311 311 311 311 311 311 311 311 311 307 303 296 299 299 300 288 288 300 297 298 297 297 298 299 299 297 294 292 289 290 295 295 299 301 295 296 295 290 284 285 284 285
315 315 315 314 313 312 311 310 310 310 310 310 309 307 300 303 299 300 300 295 285 296 297 303 300 297 296 298 297 297 295 292 295 293 290 289 290 298 303 295 291 291 290 286 281 281 284
315 315 314 314 313 313 311 310 310 309 309 308 305 294 294 297 301 299 297 287 289 295 300 299 298 294 294 297 296 295 296 297 297 295 290 289 291 301 302 299 295 292 290 291 287 285 283
316 315 315 314 313 313 312 310 310 310 310 306 295 293 298 301 302 298 292 289 293 301 301 299 292 295 291 294 294 294 296 301 301 303 297 294 291 298 302 300 302 296 295 290 287 282 281
315 315 315 314 313 313 312 311 310 310 308 304 293 296 302 302 300 294 286 287 294 301 302 298 294 293 294 293 293 293 296 300 303 302 300 295 293 295 298 296 294 294 292 290 289 287 282
315 314 314 314 313 312 312 311 310 309 305 298 294 293 302 299 290 287 287 292 299 300 302 301 298 297 294 295 293 294 296 299 305 302 297 297 294 289 293 298 299 296 293 291 287 287 287
314 314 314 314 313 312 311 310 310 308 302 293 292 294 303 300 287 286 291 298 301 300 298 298 297 298 297 293 290 295 297 304 304 301 296 296 289 285 288 291 296 295 296 293 291 289 286
314 314 314 314 313 312 311 310 310 308 303 294 292 292 296 295 292 290 291 294 296 303 300 298 296 297 294 292 293 293 297 303 304 304 312 303 291 288 286 288 294 292 296 296 290 285 286
314 314 314 313 313 313 312 311 310 307 304 293 292 292 294 290 292 292 292 294 295 295 298 299 295 295 292 288 292 293 297 299 302 304 300 294 288 290 292 296 296 296 296 295 292 292 288
314 314 314 313 313 312 312 311 310 307 302 291 290 292 292 293 293 292 292 290 295 298 297 296 295 298 296 292 293 293 295 294 295 297 294 295 291 293 292 297 295 293 296 296 295 296 296
313 313 314 313 313 312 312 311 310 307 299 288 290 293 293 292 291 291 291 294 297 298 299 301 299 297 296 298 299 298 298 298 297 294 293 292 291 289 286 294 292 288 293 294 297 298 299
313 313 313 313 313 312 312 311 310 307 300 292 293 294 291 289 291 292 296 297 297 297 296 300 299 296 300 303 300 296 295 295 295 295 294 291 290 289 286 288 281 292 298 299 299 299 298
313 313 313 313 313 312 312 311 310 308 303 293 292 293 291 289 292 294 295 294 295 296 296 299 301 301 300 298 292 289 290 291 292 294 293 293 290 286 284 283 288 292 296 296 295 295 299
313 313 313 313 313 313 312 311 311 309 305 295 292 293 292 291 290 296 293 293 291 291 294 298 300 299 298 292 290 284 284 288 288 291 294 293 292 288 285 282 281 290 297 302 300 290 299
313 313 313 313 313 313 313 312 311 310 306 295 292 294 293 291 292 293 291 292 294 291 292 293 295 295 295 288 286 285 285 291 285 285 286 286 288 285 283 283 287 295 299 302 288 289 300
312 312 312 312 312 313 313 312 311 310 307 297 292 295 295 291 292 296 297 292 293 292 291 293 293 293 291 288 287 287 286 288 286 288 287 287 285 284 284 282 283 298 298 294 296 298 300
311 311 311 311 312 312 312 312 312 310 308 300 295 299 298 294 294 297 296 297 297 297 294 292 292 292 292 290 288 288 288 287 286 284 291 286 289 287 289 288 294 297 296 299 298 296 298
Wind_Speed
4 5 5 7 7 7 8 11 14 14 15 17 17 18 19 20 20 19 19 19 20 19 16 15 14 12 3 4 8 3 5 7 4 3 3 3 3 3 1 2 1 4 4 3 9 10 9
3 3 4 4 6 7 9 12 13 14 14 14 16 18 20 21 21 20 20 20 20 18 17 13 10 7 2 4 2 4 5 3 3 2 3 3 4 3 1 2 2 3 5 8 8 6 5
1 1 3 3 4 7 9 12 12 13 14 15 16 18 20 21 22 22 21 21 21 19 15 9 6 2 2 12 3 4 4 2 3 3 1 4 4 3 2 4 2 3 6 9 3 4 5
2 0 1 1 3 7 9 10 12 13 15 15 16 19 21 22 23 24 23 23 22 17 6 2 3 1 7 4 1 7 4 3 5 5 3 4 5 3 1 2 7 4 5 6 6 9 3
5 3 2 3 3 5 7 9 10 13 15 17 17 19 21 23 24 25 25 24 14 5 5 5 3 2 8 6 2 3 3 2 1 1 2 4 4 4 6 4 6 7 1 3 11 3 4
7 6 4 4 2 2 4 8 11 13 16 18 18 19 22 24 26 26 27 15 3 1 0 3 2 3 3 4 5 5 1 3 2 3 5 7 6 4 5 6 0 3 5 5 5 7 6
8 7 6 4 3 1 5 9 12 14 15 17 19 20 22 25 26 26 13 4 8 6 7 3 6 4 5 8 3 2 1 3 4 8 3 4 6 2 4 4 4 2 3 3 7 6 3
8 8 6 4 4 2 5 9 11 13 14 16 18 20 23 25 26 21 1 8 4 4 10 5 7 6 5 2 5 4 1 3 3 0 2 7 1 5 5 4 5 4 3 7 7 3 3
9 8 6 5 4 3 3 6 9 11 13 14 17 19 22 27 25 5 3 5 3 4 1 9 5 4 3 8 5 6 4 2 2 1 1 4 4 4 3 3 2 3 5 3 5 6 3
11 9 8 6 6 5 5 6 9 12 13 14 15 16 19 31 6 5 5 5 6 4 5 6 3 3 4 2 2 5 3 4 3 0 2 3 4 4 5 5 4 4 3 4 2 4 2
12 11 9 7 7 6 5 5 8 11 12 13 14 15 15 10 3 3 6 9 7 4 4 2 1 2 3 3 2 6 2 4 2 1 4 7 3 4 6 4 4 6 5 4 2 2 2
14 12 12 10 9 7 6 6 7 10 12 13 14 14 15 2 1 7 9 9 3 6 1 3 3 2 3 2 2 2 3 6 1 2 2 7 3 3 6 3 4 2 1 5 4 4 4
14 12 11 11 9 9 8 7 7 9 11 13 16 17 10 1 4 5 7 4 7 3 4 6 2 2 3 4 3 2 3 2 2 5 6 6 4 4 1 4 2 7 8 5 6 7 5
15 15 13 12 11 10 10 9 8 9 10 13 16 18 3 5 3 5 4 6 2 1 2 4 5 4 5 7 5 4 3 5 2 4 1 2 6 6 6 1 1 3 6 6 2 2 6
16 16 15 14 12 10 9 9 8 9 10 12 14 4 3 4 5 2 6 5 5 2 3 5 3 7 6 5 3 5 4 4 2 1 4 2 5 4 5 4 3 1 6 2 6 2 2
18 18 17 15 12 11 9 8 7 7 8 8 3 4 4 1 5 4 6 4 4 3 5 3 4 3 4 7 4 4 5 5 6 4 3 1 3 1 6 4 8 8 3 4 4 1 3
18 18 17 15 13 11 10 8 6 4 5 4 3 2 3 2 1 6 4 5 5 5 1 4 2 4 3 3 3 4 5 0 5 7 5 2 3 7 3 6 1 5 5 5 4 4 5
18 18 17 16 14 12 10 9 7 3 2 5 2 2 3 2 5 1 3 4 4 4 4 5 5 4 3 4 5 3 3 3 10 3 3 3 4 2 1 7 1 4 3 5 6 5 1
20 19 17 16 14 14 12 9 8 5 2 3 2 2 3 4 3 2 4 3 3 4 4 3 3 2 1 3 3 4 3 3 9 5 3 3 2 4 9 6 4 6 3 3 3 3 5
21 19 18 16 17 14 12 11 10 8 5 4 3 2 4 5 0 4 2 2 2 4 1 4 4 4 3 4 6 2 5 3 7 5 6 3 3 6 7 5 2 3 4 1 3 2 3
23 22 21 20 18 15 14 14 12 10 7 3 2 3 2 3 3 3 1 2 0 1 2 5 4 4 3 3 3 3 4 6 4 9 6 5 0 2 3 4 2 3 7 4 7 8 5
25 23 21 21 20 17 17 16 15 12 8 3 5 3 2 1 2 6 0 2 3 3 4 2 6 3 3 4 3 6 2 1 3 5 3 4 2 2 3 3 3 4 9 9 7 0 3
25 24 22 21 20 19 18 18 17 15 6 3 1 2 4 3 3 6 6 2 3 4 3 5 5 5 4 4 3 1 3 2 3 2 2 1 4 3 4 4 6 7 5 2 5 3 2
27 26 24 23 22 21 20 19 19 18 7 3 2 3 3 1 2 3 4 2 3 2 6 3 5 5 2 2 1 2 2 4 3 6 4 3 4 2 4 3 3 6 4 2 9 2 3
28 27 26 25 24 23 22 20 20 18 12 3 1 2 3 3 1 2 4 3 3 5 5 4 4 1 2 6 4 5 6 7 3 5 3 4 5 2 2 2 6 6 3 3 2 2 2
29 28 27 26 25 23 23 22 21 18 14 4 2 2 2 6 4 1 3 2 4 3 4 3 4 3 6 4 4 2 2 2 5 4 4 5 3 5 2 2 4 4 7 7 0 1 2
29 29 28 27 26 24 23 23 21 18 17 5 3 3 2 5 3 1 3 4 3 3 3 2 4 4 4 3 3 3 4 2 2 2 3 3 2 4 2 4 7 6 9 5 1 4 3
28 29 29 27 27 26 24 23 22 19 18 5 3 4 3 3 2 1 1 4 3 2 4 3 4 4 4 4 3 3 3 3 1 3 3 3 3 2 2 2 6 5 5 4 4 3 4
29 29 30 28 27 26 25 24 22 20 17 7 1 1 3 3 4 1 2 1 2 5 7 3 4 2 4 5 1 3 2 0 2 4 2 2 4 4 7 6 4 3 1 1 2 2 4
Wind_Direction
91 69 49 37 36 21 10 6 13 359 2 357 344 339 341 347 333 329 324 320 317 317 321 319 317 320 336 358 254 311 98 105 101 97 100 136 104 127 95 244 320 183 258 205 255 281 251
93 79 53 31 26 14 9 9 7 358 357 344 340 340 345 340 329 328 324 318 314 313 313 310 308 310 28 311 233 311 144 107 111 122 132 154 173 205 173 234 171 226 261 274 279 281 259
153 77 59 27 14 14 12 8 359 351 345 346 340 338 345 332 329 327 322 319 315 311 306 296 281 262 101 239 121 2 174 200 174 167 245 207 166 135 138 310 283 282 317 334 319 333 299
221 264 66 316 6 16 6 357 353 344 348 344 343 341 340 330 330 325 322 321 316 313 318 241 192 184 249 246 292 307 171 278 238 236 222 261 154 107 112 320 2 16 52 13 295 350 292
230 244 260 308 2 11 356 352 341 349 347 347 342 342 336 331 330 324 324 319 315 357 90 133 117 102 280 310 302 330 169 215 235 137 208 101 68 75 23 45 10 359 2 341 320 319 317
227 226 225 240 245 348 338 348 351 349 348 345 342 340 335 332 329 326 326 312 284 13 214 202 253 10 310 311 300 326 210 263 10 1 29 41 47 49 35 56 241 329 343 313 245 300 348
226 227 224 230 237 308 350 352 352 347 344 343 342 339 335 332 328 329 341 31 11 353 31 265 270 265 273 309 301 323 125 100 52 49 47 358 55 262 244 205 210 242 224 258 267 263 286
227 229 234 250 276 337 356 344 343 340 341 342 339 341 336 329 328 323 350 80 99 239 311 249 244 268 280 52 316 302 113 94 73 77 20 17 276 227 242 237 212 219 288 285 283 265 165
225 227 227 243 256 244 302 317 333 335 336 339 339 341 335 331 324 31 353 98 325 140 255 299 217 213 223 140 209 261 123 111 104 44 110 152 243 287 200 291 250 208 190 241 234 337 11
214 217 224 228 231 236 269 307 328 329 335 336 336 338 341 329 58 332 302 326 304 207 43 283 300 272 119 178 258 219 201 125 42 206 166 236 294 310 352 332 135 346 234 248 288 64 250
205 206 210 219 234 244 262 293 318 322 327 328 330 337 343 357 290 332 299 328 319 71 60 277 111 144 139 148 297 358 251 70 151 93 78 267 299 322 330 230 179 236 62 353 31 86 32
207 201 200 206 213 228 263 288 303 313 319 323 325 326 340 65 287 251 312 307 58 42 51 1 128 138 87 351 337 51 68 46 63 100 350 235 281 229 224 272 207 94 47 42 53 55 31
200 202 207 209 223 242 263 283 299 308 314 321 319 313 318 165 245 330 308 32 45 112 319 330 353 70 82 342 328 76 115 39 73 22 358 334 282 284 267 337 37 63 51 351 6 10 233
197 198 203 210 215 224 249 272 284 299 319 322 315 312 245 216 275 0 24 51 97 313 325 326 23 68 73 360 15 32 58 13 30 99 59 41 346 16 321 203 157 78 128 143 283 263 275
198 196 200 206 216 215 238 264 284 302 326 332 320 329 296 267 196 154 73 71 210 219 302 338 44 61 358 0 41 68 45 8 293 212 159 43 294 319 17 3 86 89 38 175 106 353 26
203 197 202 204 210 207 210 244 272 298 329 354 352 343 282 340 167 67 76 220 248 231 319 46 90 42 46 336 40 51 22 344 338 22 195 155 332 7 298 43 15 91 154 25 13 327 298
198 199 199 201 198 204 204 220 251 283 330 345 32 30 283 143 57 50 145 227 279 265 283 64 101 82 76 0 11 34 341 238 10 327 53 65 109 291 46 20 359 358 9 39 105 118 164
194 195 198 200 198 195 200 208 223 241 359 50 72 69 316 32 55 33 160 205 280 301 10 63 84 87 92 24 37 66 84 333 328 280 38 348 129 4 306 295 204 93 121 119 104 291 133
195 196 201 194 193 185 190 190 193 184 103 121 104 256 314 83 130 279 276 277 265 335 14 52 90 67 54 63 66 64 11 317 3 44 55 358 14 26 348 349 7 55 37 85 96 82 214
193 197 198 194 185 186 184 170 173 169 159 85 101 94 336 51 240 143 214 248 300 327 311 73 112 65 78 52 24 87 0 351 354 22 27 102 95 155 195 221 203 330 320 311 124 130 250
194 194 191 187 182 183 174 165 166 167 169 95 46 243 204 194 252 178 141 322 97 110 64 37 52 75 116 91 49 18 358 339 6 351 23 73 1 331 274 239 242 251 261 211 207 227 185
192 190 188 183 181 179 174 166 165 159 137 82 139 145 11 141 76 120 78 238 197 103 40 35 102 39 83 133 164 204 190 250 263 342 34 3 289 22 291 315 359 272 256 252 238 221 289
189 187 185 184 180 177 175 167 164 163 122 128 229 314 107 298 130 115 203 188 137 111 58 63 129 100 82 163 168 217 208 246 241 244 228 75 123 78 261 345 332 309 277 334 99 38 221
187 185 184 182 179 176 175 171 166 168 144 136 215 112 103 192 106 177 163 167 101 102 133 42 66 102 224 55 38 69 345 304 267 276 180 152 96 99 243 346 223 245 306 159 119 125 333
185 184 181 180 178 178 173 170 167 174 158 105 190 125 137 107 165 36 71 91 66 38 58 82 22 343 321 49 47 17 345 8 9 43 358 166 122 152 187 211 292 330 68 82 302 269 302
186 182 180 178 178 175 170 169 169 175 160 99 248 147 117 122 242 303 91 35 129 96 26 42 12 0 67 79 71 114 242 256 317 6 73 69 73 122 119 183 229 240 322 310 65 302 296
185 181 178 177 175 173 169 169 169 172 161 126 248 169 99 110 272 148 133 148 112 90 115 318 348 31 49 84 95 159 245 242 274 283 329 348 20 189 161 236 285 300 305 285 208 252 339
182 178 178 174 172 172 169 166 167 169 165 134 245 185 126 107 293 14 79 122 67 77 134 244 56 352 43 74 128 207 176 240 308 248 232 201 159 207 121 226 280 323 359 23 223 296 288
179 176 176 171 171 170 166 162 164 167 169 130 205 203 150 102 173 318 328 4 35 173 130 28 145 144 182 92 192 109 186 59 150 272 350 318 176 192 177 227 244 299 173 131 177 261 322